Back to catalog

TITAN 3C TRANSTAGE DEB

AliveLEO
NORAD 1716·DEBRIS·🇺🇸 United States

Launched Oct 15, 1965 from Cape Canaveral Space Force Station

Loading…

Next Passes (next 24 hours)

TLE

FreshSource: Space-Track

Epoch: Sep 14, 2026, 09:36 UTC

1 01716U 65082BX  26257.40064908  .00000469  00000-0  92840-4 0  9995
2 01716  32.1889 144.7339 0037637  35.6247 324.6901 14.57649781221521

Track TITAN 3C TRANSTAGE DEB in real time with AllMySat

Download on the App Store